SCP
0 0 0 0 0 0 0 0 1 1 2 2 2 2 4 5 6 6 7 9 14 19 22 24 26 22 15 12 10 10 10 8 6 5 4 4 4 6 7 8 7 7 7 7
0 0 0 0 0 0 0 0 1 1 2 2 2 2 3 5 6 8 10 14 18 22 23 26 28 24 16 11 9 8 8 7 6 5 5 4 5 6 7 7 7 7 7 8
0 0 0 0 0 0 0 0 0 1 1 1 1 2 3 4 7 9 13 18 21 22 20 19 20 18 13 10 8 6 6 6 6 5 5 5 6 6 6 7 7 6 7 7
0 0 0 0 0 0 0 0 0 1 1 0 0 1 2 4 6 8 10 14 16 15 12 11 10 10 9 8 7 7 6 5 6 5 5 5 6 6 6 7 6 6 6 6
0 0 0 0 0 0 0 0 0 0 0 0 0 1 2 3 5 6 7 8 9 8 7 6 6 6 6 6 6 6 5 5 5 5 5 6 6 6 6 5 5 5 4 4
0 0 0 0 0 0 0 0 0 0 0 0 0 1 2 4 5 6 6 6 6 5 4 3 3 3 3 4 4 5 4 4 5 5 5 6 6 6 5 3 3 3 2 2
0 0 0 0 0 0 0 0 0 0 0 0 0 2 3 5 6 6 5 4 3 2 2 1 1 1 1 2 2 3 3 3 3 3 3 4 4 3 2 1 1 1 1 1
0 0 0 0 0 0 0 0 0 0 0 0 1 3 4 5 5 4 2 2 1 1 1 0 0 0 0 1 1 1 1 1 1 1 1 1 1 1 0 0 0 0 0 0
0 0 0 0 0 0 0 0 0 0 0 0 1 3 4 4 4 2 1 1 0 0 0 0 0 0 0 0 0 0 0 0 0 0 0 0 0 0 0 0 0 0 0 0
0 0 0 0 0 0 0 0 0 0 0 0 1 2 3 3 3 2 1 0 0 0 0 0 0 0 0 0 0 0 0 0 0 0 0 0 0 0 0 0 0 0 0 0
0 0 0 0 0 0 0 0 0 0 0 0 1 1 2 2 2 1 0 0 0 0 0 0 0 0 0 0 0 0 0 0 0 0 0 0 0 0 0 0 0 0 0 0
0 0 0 0 0 0 0 0 0 0 0 0 0 1 2 2 1 1 0 0 0 0 0 0 0 0 0 0 0 0 0 0 0 0 0 0 0 0 0 0 0 0 0 0
0 0 0 0 0 0 0 0 0 0 0 0 0 1 1 1 1 0 0 0 0 0 0 0 0 0 0 0 0 0 0 0 0 0 0 0 0 0 0 0 0 0 0 0
0 0 0 0 0 0 1 1 1 1 1 1 1 1 1 1 1 0 0 0 0 0 0 0 0 0 0 0 0 0 0 0 0 0 0 0 0 0 0 0 0 0 0 0
0 0 0 1 1 1 1 1 1 1 1 1 1 1 1 1 1 0 0 0 0 0 0 0 0 0 0 0 0 0 0 0 0 0 0 0 0 0 0 0 0 0 0 0
0 0 0 0 1 1 1 1 2 2 2 1 1 1 1 1 1 1 0 0 0 0 0 0 0 0 0 0 0 0 0 0 0 0 0 0 0 0 0 0 0 0 0 0
0 0 0 0 0 1 1 1 1 2 2 2 1 1 1 1 1 0 0 0 0 0 0 0 0 0 0 0 0 0 0 0 0 0 0 0 0 0 0 0 0 0 0 0
0 0 0 0 0 0 0 1 1 1 1 1 1 1 1 1 1 0 0 0 0 0 0 0 0 0 0 0 0 0 0 0 0 0 0 0 0 0 0 0 0 0 0 0
0 0 0 0 0 0 0 0 0 1 1 1 1 1 1 1 1 0 0 0 0 0 0 0 0 0 0 0 0 0 0 0 0 0 0 0 0 0 0 0 0 0 0 0
0 0 0 0 0 0 0 0 0 0 0 0 0 1 1 1 0 0 0 0 0 0 0 0 0 0 0 0 0 0 0 0 0 0 0 0 0 0 0 0 0 0 0 0
0 0 0 0 0 0 0 0 0 0 0 0 0 0 0 0 0 0 0 0 0 0 0 0 0 0 0 0 0 0 0 0 0 0 0 0 0 0 0 0 0 0 0 0
0 0 0 0 0 0 0 0 0 0 0 1 1 0 1 0 0 0 0 0 0 0 0 0 0 0 0 0 0 0 0 0 0 0 0 0 0 0 0 0 0 0 0 0
0 0 0 0 0 0 0 0 0 0 0 0 0 0 0 0 0 0 0 0 0 0 0 0 0 0 0 0 0 0 0 0 0 0 0 0 0 0 0 0 0 0 0 0
0 0 0 0 0 0 0 0 0 0 0 0 0 0 0 0 0 0 0 0 0 0 0 0 0 0 0 0 0 0 0 0 0 0 0 0 0 0 0 0 0 0 0 0
0 0 0 0 0 0 0 0 0 0 0 0 0 0 0 0 0 0 0 0 0 0 0 0 0 0 0 0 0 0 0 0 0 0 0 0 0 0 0 0 0 0 0 0
0 0 0 0 0 0 0 0 0 0 0 0 0 0 0 0 0 0 0 0 0 0 0 0 0 0 0 0 0 0 0 0 0 0 0 0 0 0 0 0 0 0 0 0
Wind_Speed
12 13 13 14 16 18 17 16 14 9 9 10 11 10 8 4 4 6 6 5 4 5 8 9 10 10 10 11 9 7 7 8 7 6 6 5 4 4 4 4 4 4 4 3
14 15 16 15 12 12 14 14 11 4 6 5 7 8 6 4 4 5 7 9 10 12 11 10 10 7 8 9 8 7 5 6 6 5 4 3 3 4 4 4 5 6 6 5
15 11 8 11 11 11 12 14 12 8 6 7 7 8 7 7 9 13 13 13 17 16 14 14 13 9 8 8 6 4 4 5 5 5 4 4 4 3 3 5 5 8 8 7
13 12 10 10 12 12 12 14 14 11 9 9 13 9 10 10 9 11 13 15 17 16 14 13 13 13 12 10 8 7 6 5 4 4 5 5 4 4 5 5 6 8 9 9
12 10 12 13 13 13 14 12 12 12 12 11 13 11 9 10 8 11 14 15 16 15 14 13 14 13 13 13 12 11 11 10 8 6 5 5 5 6 7 7 9 9 9 11
15 12 10 12 12 12 12 11 11 12 12 15 15 13 8 6 10 11 12 14 14 14 14 14 14 13 13 13 13 13 14 15 14 12 11 10 10 10 10 10 9 8 7 9
12 13 12 11 11 12 12 11 8 10 12 14 15 9 8 10 13 13 12 13 13 13 13 13 14 14 14 15 14 14 15 15 14 15 15 14 13 13 12 10 9 9 8 8
8 10 11 11 12 11 13 15 12 8 8 10 12 5 11 16 17 15 13 13 13 13 13 13 13 13 13 14 14 14 15 15 15 15 15 14 14 11 10 12 10 10 8 8
4 8 12 13 12 14 13 15 14 10 9 9 1 8 10 14 17 16 14 13 13 13 13 13 13 13 13 14 14 14 15 15 15 15 15 15 15 14 13 12 11 9 8 8
2 7 11 10 10 14 14 12 7 9 7 7 3 7 9 16 16 16 14 14 13 12 13 12 12 12 12 12 13 13 15 16 15 14 13 13 14 13 12 12 12 11 10 8
4 5 8 7 9 9 11 12 10 8 5 5 4 3 4 17 17 16 15 14 13 13 12 11 11 11 12 12 13 13 14 14 14 14 13 14 13 12 12 11 10 9 7 7
2 3 5 8 9 9 10 11 10 7 6 4 1 2 5 16 17 17 16 15 14 13 12 11 11 12 12 13 12 12 13 13 13 12 12 12 12 11 10 10 8 7 7 6
4 2 5 5 4 6 7 8 8 7 6 4 1 6 10 16 17 16 16 15 13 13 12 11 11 11 11 11 11 11 11 12 11 11 11 11 10 9 9 8 7 6 6 6
1 2 1 4 4 3 7 7 6 6 4 5 6 12 12 16 16 15 15 14 13 12 11 11 11 10 10 10 10 10 10 10 10 10 10 10 9 8 7 7 6 6 5 5
1 1 3 5 4 3 3 6 7 9 9 7 9 10 13 14 15 15 14 14 13 12 11 11 11 10 9 8 8 8 8 8 9 10 10 9 8 7 6 6 5 4 4 5
1 1 2 2 2 2 4 6 9 12 12 12 14 9 11 14 13 14 14 14 14 12 12 11 10 9 8 7 7 8 7 7 8 8 9 8 7 6 6 5 5 5 5 5
2 2 2 2 2 3 5 10 12 13 11 8 8 9 14 14 13 12 13 13 13 13 12 11 9 8 7 6 6 7 7 6 7 7 8 7 7 6 5 6 5 5 5 4
3 4 4 2 1 3 5 7 12 14 13 13 15 14 14 14 12 11 11 12 12 12 11 10 8 7 6 6 5 5 6 6 6 7 7 7 6 6 5 5 5 4 4 3
2 3 4 2 2 6 5 5 5 9 10 12 15 16 16 17 16 11 10 11 11 11 10 9 7 6 6 5 5 5 5 6 6 7 6 6 6 5 5 5 4 3 2 2
1 2 4 3 1 3 5 6 5 8 7 10 14 15 15 13 8 7 10 12 12 11 9 8 7 6 6 5 4 5 5 6 6 7 6 6 5 5 5 4 3 2 1 2
2 2 3 3 3 6 5 4 2 1 6 10 12 12 10 6 9 13 13 12 11 10 9 8 7 6 5 5 4 5 6 6 6 6 6 5 4 3 4 3 2 2 2 2
5 5 4 4 4 6 7 5 6 8 11 12 12 12 13 16 17 16 14 13 11 10 9 8 7 6 5 4 5 6 6 5 5 5 5 3 2 2 4 2 1 1 2 1
5 7 6 7 7 8 9 10 11 12 13 13 13 15 17 17 16 15 13 12 11 11 9 7 7 7 5 4 5 6 5 4 4 4 4 3 2 3 2 2 2 1 2 3
5 4 7 8 9 10 11 12 13 12 13 14 15 16 16 16 16 14 12 11 10 9 8 7 8 7 6 5 5 5 4 4 3 3 2 2 1 1 1 2 3 4 5 5
7 4 7 11 11 11 11 12 13 14 14 15 16 16 15 16 15 13 11 11 9 9 7 7 7 7 7 5 5 5 4 3 2 1 0 1 1 2 2 4 4 5 5 4
4 5 4 7 11 10 12 13 15 14 15 15 16 15 15 14 14 13 11 9 9 8 8 7 7 7 7 6 5 5 4 3 2 1 0 1 1 1 2 4 5 7 5 4
Wind_Direction
226 235 241 237 233 249 272 284 272 233 182 192 203 215 226 208 186 177 170 159 134 109 100 102 107 116 124 121 128 135 146 143 148 159 168 171 163 132 113 105 103 102 95 92
240 233 248 258 259 257 267 274 274 258 144 186 210 209 196 146 120 97 96 74 73 67 61 67 74 84 106 113 122 131 143 146 155 158 161 154 137 120 110 93 75 69 69 62
249 261 260 261 261 254 257 262 261 251 211 194 227 213 170 123 88 73 65 64 66 63 55 46 47 53 70 84 94 125 130 136 150 144 141 132 110 104 96 82 65 52 54 53
260 257 257 252 251 247 247 248 256 255 236 209 211 207 174 146 113 88 70 61 65 63 56 52 48 39 42 48 58 61 73 76 90 116 137 142 139 127 100 92 84 66 55 52
269 250 243 243 243 240 247 252 246 248 249 249 225 222 177 156 135 93 80 71 69 69 66 59 53 43 40 43 46 50 55 51 48 57 76 97 98 99 95 88 82 76 62 54
272 276 259 249 244 240 250 255 245 245 246 244 238 232 165 160 129 96 83 77 72 70 67 61 57 48 41 44 47 49 53 50 46 54 62 74 83 89 90 84 80 72 65 57
275 266 256 247 241 229 236 243 228 221 228 239 236 226 99 104 108 110 100 87 78 72 66 59 55 52 49 48 49 52 57 55 53 58 61 67 75 79 80 81 78 76 69 63
296 277 256 236 233 226 221 234 238 234 230 237 233 148 114 113 112 110 104 96 86 78 72 66 60 56 55 53 54 57 59 59 58 61 64 67 70 73 74 76 78 76 74 68
271 275 268 244 227 236 220 230 244 265 291 286 157 100 120 124 123 121 114 101 89 82 77 73 68 64 63 61 60 63 68 68 66 68 71 71 74 76 79 79 78 76 75 73
220 285 281 257 227 229 245 230 236 246 255 266 219 183 167 156 141 129 118 107 97 89 82 77 74 72 71 70 70 69 70 72 71 71 74 77 76 76 78 79 79 79 77 77
213 243 275 269 241 224 234 242 243 249 235 244 232 247 167 156 141 129 119 111 104 96 90 86 83 81 80 77 74 74 74 75 75 75 77 79 79 79 80 80 80 81 82 79
311 307 296 283 279 269 241 247 248 261 270 272 195 70 96 130 127 124 118 111 105 100 96 93 90 86 82 79 78 78 80 81 81 82 82 82 83 84 84 84 83 83 84 84
349 15 319 306 278 269 251 256 271 277 277 300 26 104 106 113 116 118 116 112 108 105 101 95 89 86 85 85 85 84 85 88 89 88 87 86 86 86 88 90 92 92 90 85
183 52 276 268 260 284 287 290 304 309 317 358 83 123 127 122 120 118 117 115 112 107 103 98 93 89 88 88 89 90 91 93 96 95 93 92 92 93 93 94 93 92 91 88
28 38 244 263 262 247 320 338 6 32 36 59 97 124 134 132 129 126 124 121 115 111 107 103 99 96 93 91 90 91 93 95 97 98 97 97 98 97 96 93 90 86 83 84
95 227 227 255 217 115 44 30 45 52 62 93 103 95 118 119 122 128 131 130 125 121 116 111 107 105 102 99 98 97 95 97 100 101 101 102 103 102 100 96 86 78 67 62
281 231 249 239 191 159 58 40 55 58 57 87 94 110 122 121 128 136 136 131 127 126 122 116 110 106 106 107 108 108 111 112 111 110 111 109 105 101 98 93 86 79 73 67
312 310 289 297 43 65 72 64 82 78 68 81 98 109 111 110 105 106 117 122 123 124 120 116 112 112 110 110 111 114 119 119 117 111 108 104 97 92 87 81 77 73 67 64
14 320 310 354 66 106 97 64 65 89 85 100 111 114 115 113 102 94 109 118 122 123 121 122 125 124 123 128 131 130 126 119 112 106 101 98 97 93 87 80 75 69 60 50
201 262 287 321 36 88 82 65 80 106 100 117 126 132 138 140 119 123 127 124 124 124 127 132 134 132 133 138 141 134 121 112 106 101 95 90 85 84 78 70 56 49 26 31
282 262 314 351 85 84 51 48 2 35 120 133 132 138 144 129 112 130 132 129 130 131 135 140 141 138 139 140 133 117 108 105 103 101 97 93 96 109 97 72 38 7 18 28
342 352 10 8 72 72 21 51 61 93 115 122 122 120 114 110 117 127 131 133 136 139 143 145 139 133 134 132 125 113 107 108 106 105 102 97 78 57 92 78 22 353 338 329
34 32 36 49 78 81 66 82 98 109 115 119 121 121 123 124 129 133 135 138 141 142 142 144 137 129 125 123 113 110 108 105 104 102 98 93 79 60 46 15 14 9 5 9
109 85 107 106 104 100 97 100 102 107 113 118 122 126 128 129 133 136 138 141 143 143 145 145 139 133 129 122 113 118 114 102 103 107 122 141 133 118 88 42 32 41 28 18
105 124 106 111 121 114 105 107 109 111 114 116 120 126 130 133 135 137 137 138 141 141 140 138 132 130 130 132 131 127 118 117 118 124 159 170 138 120 101 82 52 53 62 49
116 119 150 148 149 134 124 120 119 120 121 122 125 127 131 133 134 135 133 134 135 135 132 130 131 132 134 133 129 122 119 122 130 163 257 271 181 160 150 137 112 63 93 104